User: anonymous   Login
Location: Unspecified
(0.0000°N, 0.0000°E)
Time: 21:36:21
(UTC+00:00)
Language:

RS-44 - Orbit

View from above orbital plane
View from above orbital plane
View from above satellite
View from above satellite

Ground track
Ground track

The orbit data is extracted from the following two-line orbital elements,

1 44909U 19096E   22268.42114358  .00000039  00000-0  10265-3 0  9998
2 44909  82.5243 163.8788 0218399  85.9817 276.6216 12.79715073128297
Epoch (UTC): 25 September 2022 10:06:26
Eccentricity: 0.0218399
inclination: 82.5243°
perigee height: 1174 km
apogee height: 1511 km
right ascension of ascending node: 163.8788°
argument of perigee: 85.9817°
revolutions per day: 12.79715073
mean anomaly at epoch: 276.6216°
orbit number at epoch: 12829

The dashed part of the orbit path shows where the satellite is in the earth's shadow,  

DLR